Regional Weather Roundup
Issued by NWS New Orleans/Baton Rouge, LA

Home | Current Version | Previous Version | Text Only | Print | Product List | Glossary On
Versions: 1 2 3 4 5 6 7 8 9 10 11 12 13 14 15 16 17 18 19 20 21 22 23 24 25 26 27 28 29 30 31 32 33 34 35 36 37 38 39 40 41 42 43 44 45 46 47 48 49 50
000
ASUS44 KLIX 140810
RWRLIX
NEW ORLEANS REGIONAL WEATHER ROUNDUP
NATIONAL WEATHER SERVICE NEW ORLEANS LA
200 AM CST SUN FEB 14 2016

NOTE: "FAIR" INDICATES FEW OR NO CLOUDS BELOW 12,000 FEET WITH NO
      SIGNIFICANT WEATHER AND/OR OBSTRUCTIONS TO VISIBILITY.
      SKY/WX - SKY CONDITION AND SIGNIFICANT WEATHER.
      TMP - AIR TEMPERATURE.     DP    - DEWPOINT TEMPERATURE.
      RH  - RELATIVE HUMIDITY.   PRES  - PRESSURE.
      HI  - HEAT INDEX.          WCI   - WIND CHILL INDEX.

*  THESE STATIONS ARE NOT NWS OR FAA STATIONS AND ARE NOT UNDER
   NWS QUALITY CONTROL.

LAZ038-040-048-061>063-065>067-069-140900-
SOUTHEAST LOUISIANA

CITY           SKY/WX    TMP DP  RH WIND       PRES   REMARKS
N.O. AUDUBON   NOT AVBL
N.O. INTL ARPT PTCLDY    48  38  68 E5        30.26F
N.O. LAKEFRONT PTCLDY    50  45  83 E9        30.27F
N.O. DOWNTOWN* NOT AVBL
RESERVE*         N/A     47  41  78 E3        30.25F
SLIDELL        PTCLDY    39  31  72 NE3       30.27F
BATON ROUGE    PTCLDY    45  36  70 E5        30.25F
BOOTHVILLE     PTCLDY    51  43  74 NE8       30.25F
BELLE CHASSE   NOT AVBL
BOGALUSA*        N/A     36  31  82 CALM      30.29F
GALLIANO*      SUNNY     50  43  78 CALM      30.25F
NEW ROADS*       N/A     46  37  72 E5        30.25S
GONZALES*        N/A     44  40  86 CALM      30.24F
HAMMOND*       PTCLDY    45  25  45 E8        30.26F
HOUMA*         PTCLDY    43  40  91 E3        30.25S
PORT FOURCHON* MOSUNNY   57  43  58 E10G16    30.24F

$$

MSZ070-080>082-140900-
SOUTHERN MISSISSIPPI

CITY           SKY/WX    TMP DP  RH WIND       PRES   REMARKS
MCCOMB         CLOUDY    40  24  53 SE6       30.25F
GULFPORT       PTCLDY    42  24  49 E3        30.27F
BILOXI         PTCLDY    43  23  46 E8        30.27F
PASCAGOULA     PTCLDY    40  24  53 NE3       30.29F

$$

COASTAL OBSERVATIONS
LAKE AND NEARSHORE STATIONS

STATION/POSITION TIME  TEMP    WIND        PRES    WAVE
                       AIR SEA DIR/SP/G            HT/PER
                 (UTC) (F)     (DEG/KT/KT) (MB)    (FT/S)
PASCAGOULA       0700   45      70/  9/ 13 1025.6
WAVELAND YACHT   0700   46 54   80/  9/ 11 1025.4
GRAND ISLE       0700   56 62  100/  8/ 11 1024.4
NEW CANAL        0700   49 56   CALM  /  1 1024.2
SHELL BEACH      0700   52 57   70/  9/  9 1024.5

OFFSHORE STATIONS

STATION/POSITION TIME  TEMP    WIND        PRES    WAVE
                       AIR SEA DIR/SP/G            HT/PER
                 (UTC) (F)     (DEG/KT/KT) (MB)    (FT/S)

$$




USA.gov is the U.S. government's official web portal to all federal, state and local government web resources and services.